Weather History for LGAL - November, 2012

Change the Weather History Date:

Thursday, November 15, 2012

  Actual Average Record
Temperature  
Mean Temperature 53 °F -  
Max Temperature 59 °F 55 °F 75 °F (2010)
Min Temperature 47 °F 41 °F 32 °F (2003)
Degree Days  
Heating Degree Days 12    
Growing Degree Days 3 (Base 50)    
Moisture  
Dew Point 43 °F    
Average Humidity 68    
Maximum Humidity 82    
Minimum Humidity 48    
Precipitation  
Precipitation 0.00 in 0.11 in - ()
Sea Level Pressure  
Sea Level Pressure 30.26 in    
Wind  
Wind Speed 14 mph ()    
Max Wind Speed 22 mph    
Max Gust Speed 34 mph    
Visibility 6.2 miles    
Events      
Averages and records for this station are not official NWS values.
T = Trace of Precipitation, MM = Missing Value Source: Averaged Metar Reports

Daily Weather History Graph

Daily Weather History Graph

Search for Another Location

Airport or City:

Trip Planner

Search our weather history database for the weather conditions in past years. The results will help you decide how hot, cold, wet, or windy it might be!

Date:

Astronomy

Nov. 15, 2012 Rise Set
Actual Time 7:03 AM EET 4:57 PM EET
Civil Twilight 6:34 AM EET 5:27 PM EET
Nautical Twilight 6:00 AM EET 6:00 PM EET
Astronomical Twilight 5:28 AM EET 6:32 PM EET
Moon 8:39 AM EET (11/15) 6:27 PM EET (11/15)
Length of Visible Light 10h 53m
Length of Day
9h 54m
Waxing Crescent, 3% of the Moon is Illuminated
Nov 15
Waxing Crescent
Nov 20
First Quarter
Nov 28
Full
Dec 6
Last Quarter
Dec 13
New

Hourly Weather History & Observations

Time (EET) Temp. Dew Point Humidity Pressure Visibility Wind Dir Wind Speed Gust Speed Precip Events Conditions
12:20 AM 50.0 °F 42.8 °F 76% 30.30 in 6.2 mi North 15.0 mph - N/A   Scattered Clouds
12:50 AM 50.0 °F 41.0 °F 71% 30.30 in 6.2 mi North 17.3 mph - N/A   Mostly Cloudy
1:20 AM 50.0 °F 41.0 °F 71% 30.30 in 6.2 mi North 16.1 mph - N/A   Mostly Cloudy
1:50 AM 48.2 °F 41.0 °F 76% 30.33 in 6.2 mi North 15.0 mph - N/A   Mostly Cloudy
2:00 AM 49 °F 41 °F 67% 30.33 in 6 mi North 15.0 mph - -   Partly Cloudy
2:20 AM 48.2 °F 42.8 °F 82% 30.33 in 6.2 mi North 15.0 mph - N/A   Mostly Cloudy
2:50 AM 48.2 °F 41.0 °F 76% 30.33 in 6.2 mi North 9.2 mph - N/A   Scattered Clouds
3:20 AM 48.2 °F 41.0 °F 76% 30.33 in 6.2 mi North 10.4 mph - N/A   Scattered Clouds
3:50 AM 48.2 °F 41.0 °F 76% 30.33 in 6.2 mi North 11.5 mph - N/A   Scattered Clouds
4:20 AM 48.2 °F 41.0 °F 76% 30.33 in 6.2 mi North 10.4 mph - N/A   Scattered Clouds
4:50 AM 48.2 °F 41.0 °F 76% 30.30 in 6.2 mi North 13.8 mph - N/A   Scattered Clouds
5:20 AM 48.2 °F 41.0 °F 76% 30.30 in 6.2 mi North 11.5 mph - N/A   Scattered Clouds
5:50 AM 48.2 °F 42.8 °F 82% 30.30 in 6.2 mi North 11.5 mph - N/A   Scattered Clouds
6:20 AM 48.2 °F 42.8 °F 82% 30.30 in 6.2 mi NNE 13.8 mph - N/A   Scattered Clouds
6:50 AM 50.0 °F 42.8 °F 76% 30.27 in 6.2 mi North 9.2 mph - N/A   Scattered Clouds
7:20 AM 50.0 °F 42.8 °F 76% 30.27 in 6.2 mi NNE 10.4 mph - N/A   Scattered Clouds
7:50 AM 51.8 °F 42.8 °F 71% 30.27 in 6.2 mi North 11.5 mph - N/A   Scattered Clouds
8:00 AM 51 °F 43 °F 66% 30.30 in 6 mi North 11.5 mph - -   Partly Cloudy
8:20 AM 53.6 °F 42.8 °F 67% 30.27 in 6.2 mi NNE 16.1 mph - N/A   Scattered Clouds
8:50 AM 53.6 °F 42.8 °F 67% 30.27 in 6.2 mi NNE 20.7 mph - N/A   Mostly Cloudy
9:20 AM 55.4 °F 44.6 °F 67% 30.27 in 6.2 mi NNE 16.1 mph 27.6 mph N/A   Mostly Cloudy
9:50 AM 55.4 °F 42.8 °F 63% 30.27 in 6.2 mi NNE 20.7 mph 32.2 mph N/A   Mostly Cloudy
10:20 AM 57.2 °F 42.8 °F 59% 30.27 in 6.2 mi NNE 19.6 mph 32.2 mph N/A   Mostly Cloudy
10:50 AM 57.2 °F 42.8 °F 59% 30.27 in 6.2 mi NNE 20.7 mph - N/A   Scattered Clouds
11:20 AM 57.2 °F 42.8 °F 59% 30.27 in 6.2 mi NNE 19.6 mph - N/A   Scattered Clouds
11:50 AM 59.0 °F 44.6 °F 59% 30.27 in 6.2 mi NNE 18.4 mph - N/A   Scattered Clouds
12:20 PM 59.0 °F 44.6 °F 59% 30.27 in 6.2 mi NNE 18.4 mph - N/A   Scattered Clouds
12:50 PM 59.0 °F 42.8 °F 55% 30.24 in 6.2 mi NNE 19.6 mph - N/A   Partly Cloudy
1:20 PM 59.0 °F 42.8 °F 55% 30.24 in 6.2 mi NNE 18.4 mph 29.9 mph N/A   Partly Cloudy
1:50 PM 59.0 °F 42.8 °F 55% 30.24 in 6.2 mi NNE 19.6 mph 31.1 mph N/A   Partly Cloudy
2:00 PM 58 °F 44 °F 48% 30.24 in 6 mi NNE 19.6 mph - -   Scattered Clouds
2:20 PM 59.0 °F 42.8 °F 55% 30.24 in 6.2 mi NNE 20.7 mph 33.4 mph N/A   Partly Cloudy
2:50 PM 59.0 °F 42.8 °F 55% 30.21 in 6.2 mi NNE 19.6 mph - N/A   Partly Cloudy
3:20 PM 59.0 °F 42.8 °F 55% 30.21 in 6.2 mi North 21.9 mph 34.5 mph N/A   Partly Cloudy
3:50 PM 57.2 °F 42.8 °F 59% 30.21 in 6.2 mi NNE 20.7 mph 32.2 mph N/A   Partly Cloudy
4:20 PM 57.2 °F 42.8 °F 59% 30.21 in 6.2 mi NNE 17.3 mph - N/A   Partly Cloudy
4:50 PM 53.6 °F 44.6 °F 72% 30.21 in 6.2 mi NNE 21.9 mph 33.4 mph N/A   Partly Cloudy
5:20 PM 53.6 °F 44.6 °F 72% 30.21 in 6.2 mi NNE 17.3 mph - N/A   Scattered Clouds
5:50 PM 51.8 °F 44.6 °F 76% 30.21 in 6.2 mi NNE 12.7 mph - N/A   Scattered Clouds
6:20 PM 51.8 °F 44.6 °F 76% 30.21 in 6.2 mi NNE 10.4 mph - N/A   Scattered Clouds
6:50 PM 51.8 °F 44.6 °F 76% 30.24 in 6.2 mi NNE 9.2 mph - N/A   Scattered Clouds
7:20 PM 50.0 °F 42.8 °F 76% 30.24 in 6.2 mi NE 8.1 mph - N/A   Scattered Clouds
7:50 PM 53.6 °F 42.8 °F 67% 30.24 in 6.2 mi NE 9.2 mph - N/A   Partly Cloudy
8:00 PM 54 °F 43 °F 57% 30.25 in 6 mi NE 9.2 mph - -   Scattered Clouds
8:20 PM 51.8 °F 42.8 °F 71% 30.24 in 6.2 mi NE 10.4 mph - N/A   Partly Cloudy
8:50 PM 51.8 °F 42.8 °F 71% 30.24 in 6.2 mi NE 10.4 mph - N/A   Partly Cloudy
9:20 PM 50.0 °F 42.8 °F 76% 30.24 in 6.2 mi NNE 12.7 mph - N/A   Partly Cloudy
9:50 PM 51.8 °F 41.0 °F 67% 30.24 in 6.2 mi NNE 11.5 mph - N/A   Partly Cloudy
10:20 PM 51.8 °F 41.0 °F 67% 30.24 in 6.2 mi NNE 11.5 mph - N/A   Partly Cloudy
10:50 PM 51.8 °F 44.6 °F 76% 30.24 in 6.2 mi NNE 9.2 mph - N/A   Partly Cloudy
11:20 PM 51.8 °F 44.6 °F 76% 30.24 in 6.2 mi NNE 9.2 mph - N/A   Partly Cloudy
11:50 PM 51.8 °F 44.6 °F 76% 30.21 in 6.2 mi NNE 9.2 mph - N/A   Partly Cloudy